Tracking 20093 objects as of 16-Dec-2019
HD Live streaming from Space Station
objects crossing your sky now

COSMOS 2251 DEB

Track COSMOS 2251 DEB now!
10-day predictions


NORAD ID: 35776
Int'l Code: 1993-036ARW
Perigee: 550.1 km
Apogee: 1,022.8 km
Inclination: 74.0 °
Period: 100.4 minutes
Semi major axis: 7157 km
RCS: 0.0091 m2 (small)
Launch date: June 16, 1993
Source: Commonwealth of Independent States (former USSR) (CIS)
Launch site: PLESETSK MISSILE AND SPACE COMPLEX (PKMTR)

Note: This is SATELLITE DEBRIS
aabbcc
Your satellite tracking list
Your tracking list is empty




NASA's NSSDC Master Catalog

Two Line Element Set (TLE):
1 35776U 93036ARW 19348.72536181  .00000922  00000-0  18700-3 0  9999
2 35776  74.0061 147.0701 0330238 319.2048  38.4792 14.33716247548529
Source of the keplerian elements: AFSPC